Location: Te Maire Creek
(41.1333°S, 175.9167°E)
Time: 01:59:32
(UTC+00:00)

Cosmos 2100 Rocket - Pass Details

Date: 19 May 2024
Orbit: 954 x 1001 km, 82.9° (Epoch: 18 June)

Event Time Altitude Azimuth Distance (km) Brightness Sun altitude
Rises 18:32:23 0° 186° (S) 3,738 6.8 -9.5°
Reaches altitude 10° 18:34:57 10° 184° (S) 2,788 6.2 -9.0°
Maximum altitude 18:41:22 74° 98° (E) 1,047 4.4 -7.9°
Drops below altitude 10° 18:47:45 10° 13° (NNE) 2,773 6.9 -6.8°
Sets 18:50:17 0° 11° (N) 3,715 7.5 -6.3°
